Home > Weather > Barnala > Past weeks

Flag for India Weather for the Past 2 Weeks in Barnala, Punjab, India

Now
46 °F

Fog.


Feels Like: 46 °F
Forecast: 45 / 77 °F
Wind: No wind

Location: Amritsar Airport

Current Time: Feb 9, 2016 at 5:46:11 AM

Latest Report: Feb 9, 2016 at 4:30 AM


Visibility: 0 mi

Pressure: 30.01 "Hg

Humidity: 100%

Dew point: 46 °F

Location of BarnalaLocation

Historic Weather in Barnala — Graph

°F

Barnala Temperature Yesterday

Maximum temperature yesterday: 70 °F (at 3:00 PM)
Minimum temperature yesterday: 46 °F (at 4:30 AM)
Average temperature yesterday: 62 °F

High & Low Weather Summary for the Past Weeks

 TemperatureHumidityPressure
High72 °F (Feb 4, 1:30 PM)100% (Jan 25, 5:00 AM)30.15 "Hg (Jan 25, 5:00 AM)
Low41 °F (Jan 25, 7:30 AM)26% (Feb 1, 4:30 PM)29.89 "Hg (Feb 6, 3:30 AM)
Average56 °F88%30.03 "Hg
* Reported Jan 25 5:00 AM — Feb 9 4:30 AM, Barnala, Weather by CustomWeather, © 2016

Note: Actual official high and low records may vary slightly from our data, if they occured in-between our weather recording intervals... More about our weather records

Advertising

Barnala Weather History for the Previous 24 Hours

 ConditionsComfort  
Time TempWeatherWind HumidityBarometerVisibility
4:30 AM
Tue, Feb 9
46 °FFog.No wind100%30.01 "Hg0 mi
3:30 AM50 °FFog.No wind100%30.04 "Hg0 mi
2:30 AM52 °FFog.No wind100%30.04 "Hg0 mi
1:30 AM52 °FFog.No wind100%30.04 "Hg0 mi
12:30 AM52 °FFog.No wind100%30.07 "Hg1 mi
11:30 PM
Mon, Feb 8
54 °FFog.No wind100%30.07 "Hg2 mi
10:30 PM54 °FFog.No wind100%30.07 "Hg2 mi
9:30 PM57 °FFog.No wind100%30.07 "Hg2 mi
8:30 PM61 °FFog.No wind83%30.07 "Hg3 mi
8:00 PM63 °FFog.No wind83%30.07 "Hg3 mi
7:30 PM63 °FFog.No wind83%30.07 "Hg3 mi
7:00 PM64 °FFog.No wind78%30.04 "Hg3 mi
6:30 PM64 °FFog.No wind78%30.04 "Hg3 mi
6:00 PM64 °FFog.No wind78%30.04 "Hg3 mi
5:30 PM68 °FHaze.No wind64%30.04 "Hg3 mi
5:00 PM68 °FHaze.2 mph64%30.04 "Hg3 mi
4:00 PM70 °FClear.2 mph60%30.07 "Hg3 mi
3:30 PM70 °FClear.3 mph64%30.07 "Hg3 mi
3:00 PM70 °FClear.2 mph64%30.07 "Hg4 mi
2:30 PM68 °FClear.5 mph64%30.07 "Hg4 mi
1:30 PM68 °FClear.6 mph64%30.09 "Hg4 mi
1:00 PM66 °FHaze.5 mph64%30.12 "Hg3 mi
12:30 PM66 °FHaze.1 mph68%30.12 "Hg3 mi
12:00 PM64 °FFog.2 mph73%30.12 "Hg2 mi
11:30 AM63 °FFog.3 mph83%30.12 "Hg2 mi
11:00 AM61 °FFog.No wind88%30.12 "Hg2 mi
10:30 AM59 °FFog.No wind94%30.15 "Hg1 mi
9:00 AM52 °FFog.No wind100%30.12 "Hg1 mi
5:30 AM46 °FFog.No wind100%30.04 "Hg1 mi
Weather by CustomWeather, © 2016

See weather overviewHow to use our weather pages